Find Starlink 3858

NORAD ID: 52553 Int'l Des: 2022-051 Owner: SPXS Country: US Constellation: starlink operational
LEOCIRCULAR

リアルタイム位置

3D地球を読み込み中...

Starlink 3858について

説明を読み込み中...

次回通過

Passes for default location (London). Set your location on the main map for personalized predictions.

高度履歴

Loading altitude history...

軌道要素

1 52553U 22051W 26124.66668981 .01797327 00000-0 58703-1 0 9995
2 52553 53.2217 236.4220 0001483 93.0382 52.0778 15.28292040 5807
Epoch: May 4, 2026 • Age: 7 hours

現在のステータス

高度 484.4 km
速度 7.62 km/s
衛星直下点 -20.48°S, 129.65°W
打ち上げ日 May 13, 2022
運用期間 3.9 years
タイプ internet

技術仕様

分類 Payload
質量 297.00 kg
乾燥質量 275.00 kg
総質量 297.00 kg
長さ 0.20 m
直径 2.80 m
スパン 9.00 m
形状 Box + pan
製造者 SPXS
バスタイプ Starlink
フェーズステータス In Orbit
所有者/国 SPXS/US

Most Searched